LEMUR-2-NATALIEMURRAY (43887 NORAD) Tracking and Keplerian Element Data

This shows tracking and keplerian element data for the satellite.

Feedback or suggestion? Click here.




ElementValue
Catalog43887
NameLEMUR-2-NATALIEMURRAY
Epoch Orbit319
Epoch Day17.54098025
Epoch Year2019
RAAN287.7108
Inclination97.7289
Eccentricity0.0011663
Argument of Perigee164.4302
Mean Anonmoly195.7281
Mean Motion14.96630337
Decay Rate6.18E-06
L11 43887U 18111M 19017.54098025 .00000618 00000-0 59240-4 0 9992
L22 43887 97.7289 287.7108 0011663 164.4302 195.7281 14.96630337 3192

Live tracking and technical data element details for LEMUR-2-NATALIEMURRAY (NORAD 43887). LEMUR-2-NATALIEMURRAY can be tracked NOW for your location showing map with azimuth and elevation plus other details from your city location.

Track the satellite on the map from your city or location and see movement details for azimuth, elevation, latitude, longitude, range, height, and movement on the map or in text.







IsCatalogInMostPopularTable: catalog: 43887, numindb: 16
Update: records affected: 1



GetName: 43887 LEMUR-2-NATALIEMURRAY

Hit Count: updated at: Fri, 18 Jan 2019 21:57:19 GMT